Regional Weather Roundup
Issued by NWS Cleveland, OH

Home | Current Version | Previous Version | Graphics & Text | Print | Product List | Glossary On
Versions: 1 2 3 4 5 6 7 8 9 10 11 12 13 14 15 16 17 18 19 20 21 22 23 24 25 26 27 28 29 30 31 32 33 34 35 36 37 38 39 40 41 42 43 44 45 46 47 48 49 50
138
ASUS41 KCLE 232100
RWRCLE
OHIO REGIONAL WEATHER ROUNDUP
NATIONAL WEATHER SERVICE WILMINGTON, OH
500 PM EDT MON APR 23 2018

NOTE: "FAIR" INDICATES FEW OR NO CLOUDS BELOW 12,000 FEET WITH NO
SIGNIFICANT WEATHER AND/OR OBSTRUCTIONS TO VISIBILITY.

OHZ001>008-015>018-024>027-034-035-043-044-232200-
   NORTHWEST OHIO

CITY           SKY/WX    TMP DP  RH WIND       PRES   REMARKS
DEFIANCE       CLOUDY    67  49  52 S17G25    30.11
FINDLAY        LGT RAIN  65  47  52 S15       30.13S
TOLEDO EXPRESS FAIR      67  46  47 E14       30.12F
TOLEDO EXEC    FAIR      62  44  51 NE8       30.14S
LIMA           LGT RAIN  57  54  89 S14       30.15S
$$

OHZ009>014-019>023-028>033-038-089-232200-
   NORTHEAST OHIO

CITY           SKY/WX    TMP DP  RH WIND       PRES   REMARKS
CLE-HOPKINS    CLOUDY    73  39  29 S14       30.16F
CLE-LAKEFRONT  FAIR      74  36  25 S14G20    30.13F
CUY CO. ARPT   PTSUNNY   73  41  31 SE14      30.16F
LORAIN-ELYRIA  FAIR      70  35  27 S14G24    30.15F
ASHTABULA      FAIR      72  38  29 SE9       30.17F
AKRON-CANTON   PTSUNNY   73  41  31 S10       30.16F
WOOSTER        NOT AVBL
MANSFIELD      PTSUNNY   69  41  36 S17       30.15F
YOUNGSTOWN     CLOUDY    72  38  29 E17G24    30.16F
$$

OHZ042-051>053-060>062-070>072-077>081-232200-
  SOUTHWEST OHIO

CITY           SKY/WX    TMP DP  RH WIND       PRES   REMARKS
CINC-COVINGTON LGT RAIN  56  52  86 E20G30    30.07F FOG
CINC-LUNKEN    LGT RAIN  57  54  89 E10G17    30.11F FOG
HAMILTON       LGT RAIN  57  54  89 E9        30.11F
DAYTON         NOT AVBL
WRIGHT-PAT AFB NOT AVBL
DAYTON GENERAL LGT RAIN  56  51  84 E10       30.12S
WILMINGTON     RAIN      53  51  93 SE15G25   30.14F FOG
$$

OHZ036-037-039>041-045>050-054>059-063>069-073>076-082>088-232200-
  CENTRAL AND SOUTHEAST OHIO

CITY           SKY/WX    TMP DP  RH WIND       PRES   REMARKS
COLUMBUS       LGT RAIN  58  45  62 SE17G24   30.19F
OSU AIRPORT    CLOUDY    56  48  74 SE9G23    30.19S
BOLTON FIELD   LGT RAIN  55  50  82 SE12G17   30.19F
RICKENBACK AFB NOT AVBL
NEWARK         CLOUDY    59  42  53 S9        30.19F
MARION         LGT RAIN  57  51  80 S17G24    30.19R
LANCASTER      LGT RAIN  57  45  64 SE14      30.19F
ZANESVILLE     CLOUDY    62  37  39 S13       30.19S
NEW PHILLY     PTSUNNY   72  38  29 S9        30.15F
$$




USA.gov is the U.S. government's official web portal to all federal, state and local government web resources and services.